Location: Ajisawe
(8.4333°N, 4.3833°E)
Time: 21:45:25
(UTC+00:00)

Vanguard 2 Rocket - Pass Details

Date: 28 April 2021
Orbit: 554 x 3326 km, 32.9° (Epoch: 16 May)

Event Time Altitude Azimuth Distance (km) Brightness Sun altitude
Rises 15:33:02 0° 307° (NW) 6,975 12.3 32.7°
Reaches altitude 10° 15:37:56 10° 313° (NW) 6,140 12.1 31.5°
Maximum altitude 15:57:11 47° 23° (NNE) 3,858 10.3 26.9°
Drops below altitude 10° 16:13:00 10° 93° (E) 5,190 10.3 23.0°
Sets 16:16:39 0° 99° (E) 5,877 10.4 22.1°
